| time (UTC) | temp C | wind direction | speed KPH | gust KPH | rain 1hr cm | rain 24hr cm | rain mn cm | humidity % | barometer mb |
| 20260509213020 | 15 | 209 | 4.8 | 11.3 | 0.00 | 0.00 | 0.00 | 74 | 1003.2 |
| 20260509211521 | 16 | 212 | 9.7 | 14.5 | 0.00 | 0.00 | 0.00 | 73 | 1003.2 |
| 20260509210013 | 15 | 177 | 8.0 | 16.1 | 0.00 | 0.00 | 0.00 | 73 | 1003.5 |
| 20260509204524 | 16 | 221 | 8.0 | 16.1 | 0.00 | 0.00 | 0.00 | 72 | 1003.8 |
| 20260509203010 | 16 | 227 | 8.0 | 22.5 | 0.00 | 0.00 | 0.00 | 71 | 1003.8 |
| 20260509201508 | 16 | 206 | 9.7 | 25.7 | 0.00 | 0.00 | 0.00 | 71 | 1003.8 |
| 20260509200011 | 16 | 185 | 9.7 | 22.5 | 0.00 | 0.00 | 0.00 | 70 | 1003.9 |
| 20260509194509 | 17 | 200 | 12.9 | 22.5 | 0.00 | 0.00 | 0.00 | 68 | 1003.9 |
| 20260509193006 | 16 | 234 | 17.7 | 25.7 | 0.00 | 0.00 | 0.00 | 68 | 1004.0 |
| 20260509191502 | 16 | 216 | 11.3 | 25.7 | 0.00 | 0.00 | 0.00 | 68 | 1004.6 |
| 20260509190002 | 16 | 278 | 9.7 | 27.4 | 0.00 | 0.00 | 0.00 | 72 | 1004.8 |
| 20260509184600 | 16 | 212 | 6.4 | 29.0 | 0.00 | 0.00 | 0.00 | 72 | 1004.8 |
| 20260509183059 | 16 | 212 | 16.1 | 25.7 | 0.00 | 0.00 | 0.00 | 70 | 1005.1 |
| 20260509181604 | 16 | 186 | 14.5 | 27.4 | 0.00 | 0.00 | 0.00 | 71 | 1004.9 |
| 20260509180058 | 16 | 192 | 14.5 | 27.4 | 0.00 | 0.00 | 0.00 | 69 | 1005.1 |
| 20260509174602 | 16 | 210 | 12.9 | 22.5 | 0.00 | 0.00 | 0.00 | 72 | 1005.2 |
| 20260509173059 | 15 | 226 | 11.3 | 24.1 | 0.00 | 0.00 | 0.00 | 74 | 1005.6 |
| 20260509171552 | 15 | 219 | 12.9 | 27.4 | 0.00 | 0.00 | 0.00 | 74 | 1006.0 |
| 20260509170046 | 15 | 198 | 11.3 | 19.3 | 0.00 | 0.00 | 0.00 | 77 | 1006.0 |
| 20260509164545 | 15 | 261 | 9.7 | 22.5 | 0.00 | 0.00 | 0.00 | 75 | 1006.0 |
| 20260509163045 | 15 | 213 | 9.7 | 19.3 | 0.00 | 0.00 | 0.00 | 77 | 1006.2 |
| 20260509161538 | 15 | 190 | 9.7 | 19.3 | 0.00 | 0.00 | 0.00 | 76 | 1006.4 |
| 20260509160037 | 15 | 234 | 12.9 | 22.5 | 0.00 | 0.00 | 0.00 | 75 | 1006.4 |
| 20260509154536 | 15 | 268 | 8.0 | 17.7 | 0.00 | 0.00 | 0.00 | 77 | 1006.3 |
| 20260509153035 | 14 | 141 | 8.0 | 16.1 | 0.00 | 0.00 | 0.00 | 78 | 1006.4 |
| 20260509151534 | 13 | 167 | 6.4 | 14.5 | 0.00 | 0.00 | 0.00 | 80 | 1006.3 |
| 20260509150031 | 13 | 223 | 6.4 | 16.1 | 0.00 | 0.00 | 0.00 | 79 | 1006.5 |
| 20260509144529 | 13 | 223 | 6.4 | 16.1 | 0.00 | 0.00 | 0.00 | 80 | 1006.6 |
| 20260509143031 | 13 | 216 | 8.0 | 17.7 | 0.00 | 0.00 | 0.00 | 82 | 1006.6 |
| 20260509141526 | 13 | 235 | 11.3 | 17.7 | 0.00 | 0.00 | 0.00 | 82 | 1006.7 |
| 20260509140034 | 13 | 210 | 6.4 | 14.5 | 0.00 | 0.00 | 0.00 | 84 | 1006.7 |
| 20260509134520 | 12 | 237 | 9.7 | 16.1 | 0.00 | 0.00 | 0.00 | 84 | 1007.1 |
| 20260509133019 | 12 | 200 | 8.0 | 17.7 | 0.00 | 0.00 | 0.00 | 84 | 1007.0 |
| 20260509131529 | 12 | 181 | 8.0 | 16.1 | 0.00 | 0.00 | 0.00 | 84 | 1007.1 |
| 20260509130024 | 12 | 194 | 8.0 | 14.5 | 0.00 | 0.00 | 0.00 | 85 | 1007.1 |
| 20260509124520 | 12 | 138 | 6.4 | 12.9 | 0.00 | 0.03 | 0.00 | 87 | 1007.1 |
| 20260509123009 | 11 | 190 | 4.8 | 11.3 | 0.00 | 0.03 | 0.00 | 88 | 1007.2 |
| 20260509121510 | 11 | 201 | 3.2 | 8.0 | 0.00 | 0.03 | 0.00 | 89 | 1007.4 |
| 20260509120002 | 10 | 140 | 4.8 | 12.9 | 0.00 | 0.10 | 0.00 | 90 | 1007.3 |
| 20260509114559 | 9 | 195 | 3.2 | 8.0 | 0.00 | 0.10 | 0.00 | 91 | 1007.4 |
| 20260509113055 | 8 | 188 | 1.6 | 4.8 | 0.00 | 0.10 | 0.00 | 92 | 1007.4 |
| 20260509111524 | 7 | 110 | 0.0 | 1.6 | 0.00 | 0.10 | 0.00 | 92 | 1007.4 |
| 20260509110023 | 6 | 93 | 0.0 | 1.6 | 0.00 | 0.10 | 0.00 | 92 | 1007.4 |
| 20260509104523 | 5 | 93 | 0.0 | 1.6 | 0.00 | 0.20 | 0.00 | 91 | 1007.5 |
| 20260509103018 | 5 | 93 | 0.0 | 0.0 | 0.00 | 0.20 | 0.00 | 91 | 1007.6 |
| 20260509101520 | 4 | 93 | 0.0 | 1.6 | 0.00 | 0.20 | 0.00 | 90 | 1007.6 |
| 20260509100016 | 4 | 93 | 0.0 | 0.0 | 0.00 | 0.20 | 0.00 | 89 | 1007.6 |
| 20260509094515 | 4 | 93 | 0.0 | 1.6 | 0.00 | 0.20 | 0.00 | 89 | 1007.6 |
| 20260509093011 | 4 | 94 | 0.0 | 0.0 | 0.00 | 0.20 | 0.00 | 87 | 1007.6 |
| 20260509091508 | 5 | 94 | 0.0 | 0.0 | 0.00 | 0.20 | 0.00 | 86 | 1007.5 |
| 20260509090009 | 5 | 93 | 0.0 | 0.0 | 0.00 | 0.20 | 0.00 | 84 | 1007.6 |
| 20260509084511 | 5 | 93 | 0.0 | 0.0 | 0.00 | 0.20 | 0.00 | 83 | 1007.6 |
| 20260509083102 | 6 | 93 | 0.0 | 0.0 | 0.00 | 0.20 | 0.00 | 81 | 1007.7 |
| 20260509081558 | 6 | 93 | 0.0 | 0.0 | 0.00 | 0.20 | 0.00 | 80 | 1007.8 |
| 20260509074556 | 6 | 115 | 0.0 | 4.8 | 0.00 | 0.20 | 0.00 | 76 | 1007.9 |
| 20260509073054 | 6 | 103 | 1.6 | 4.8 | 0.00 | 0.20 | 0.00 | 75 | 1008.0 |
| 20260509071550 | 6 | 119 | 1.6 | 4.8 | 0.00 | 0.20 | 0.00 | 74 | 1008.2 |
| 20260509070047 | 6 | 97 | 1.6 | 4.8 | 0.00 | 0.20 | 0.00 | 74 | 1008.2 |
| 20260509064547 | 6 | 129 | 1.6 | 6.4 | 0.00 | 0.20 | 0.00 | 74 | 1008.4 |
| 20260509063043 | 6 | 122 | 3.2 | 6.4 | 0.00 | 0.20 | 0.00 | 76 | 1008.6 |
| 20260509061540 | 5 | 79 | 0.0 | 3.2 | 0.00 | 0.20 | 0.00 | 78 | 1008.7 |
| 20260509060031 | 5 | 95 | 0.0 | 1.6 | 0.00 | 0.20 | 0.00 | 80 | 1009.0 |
| 20260509054528 | 5 | 95 | 0.0 | 1.6 | 0.00 | 0.23 | 0.00 | 79 | 1009.3 |
| 20260509053020 | 6 | 95 | 0.0 | 1.6 | 0.00 | 0.23 | 0.00 | 73 | 1009.3 |
| 20260509051517 | 6 | 98 | 0.0 | 1.6 | 0.00 | 0.23 | 0.00 | 73 | 1009.6 |
| 20260509050016 | 6 | 79 | 0.0 | 3.2 | 0.00 | 0.23 | 0.00 | 75 | 1009.5 |
| 20260509044513 | 7 | 129 | 0.0 | 3.2 | 0.00 | 0.23 | 0.00 | 73 | 1009.7 |
| 20260509043006 | 7 | 179 | 3.2 | 4.8 | 0.00 | 0.23 | 0.00 | 72 | 1009.8 |
| 20260509041502 | 7 | 188 | 1.6 | 3.2 | 0.00 | 0.23 | 0.00 | 71 | 1010.0 |
| 20260509040123 | 7 | 189 | 0.0 | 3.2 | 0.00 | 0.23 | 0.00 | 69 | 1010.0 |
| 20260509034607 | 7 | 137 | 1.6 | 4.8 | 0.00 | 0.23 | 0.23 | 70 | 1010.1 |
| 20260509033059 | 6 | 193 | 0.0 | 3.2 | 0.00 | 0.23 | 0.23 | 71 | 1010.2 |
| 20260509031604 | 6 | 171 | 0.0 | 3.2 | 0.00 | 0.23 | 0.23 | 71 | 1010.4 |
| 20260509030054 | 6 | 179 | 0.0 | 1.6 | 0.00 | 0.23 | 0.23 | 73 | 1010.5 |
| 20260509024553 | 6 | 182 | 0.0 | 0.0 | 0.00 | 0.23 | 0.23 | 72 | 1010.6 |
| 20260509023053 | 6 | 182 | 0.0 | 1.6 | 0.00 | 0.23 | 0.23 | 71 | 1010.6 |
| 20260509021549 | 6 | 188 | 0.0 | 3.2 | 0.00 | 0.23 | 0.23 | 72 | 1010.7 |
| 20260509020053 | 6 | 193 | 0.0 | 0.0 | 0.00 | 0.23 | 0.23 | 71 | 1010.6 |
| 20260509014556 | 6 | 193 | 0.0 | 0.0 | 0.00 | 0.36 | 0.23 | 67 | 1010.3 |
| 20260509013052 | 7 | 193 | 0.0 | 1.6 | 0.00 | 0.36 | 0.23 | 62 | 1010.2 |
| 20260509011544 | 7 | 194 | 0.0 | 0.0 | 0.00 | 0.36 | 0.23 | 58 | 1010.1 |
| 20260509010052 | 8 | 193 | 0.0 | 0.0 | 0.00 | 0.36 | 0.23 | 48 | 1010.1 |
| 20260509004542 | 9 | 193 | 0.0 | 1.6 | 0.00 | 0.38 | 0.23 | 45 | 1010.1 |
| 20260509003045 | 10 | 199 | 1.6 | 3.2 | 0.00 | 0.38 | 0.23 | 43 | 1010.2 |
| 20260509001529 | 10 | 199 | 1.6 | 4.8 | 0.00 | 0.38 | 0.23 | 41 | 1010.1 |
| 20260509000028 | 11 | 174 | 3.2 | 6.4 | 0.00 | 0.38 | 0.23 | 37 | 1009.9 |
| 20260508234528 | 11 | 152 | 1.6 | 11.3 | 0.00 | 0.56 | 0.23 | 37 | 1009.8 |
| 20260508233025 | 12 | 199 | 3.2 | 9.7 | 0.00 | 0.56 | 0.23 | 36 | 1009.8 |
| 20260508231523 | 12 | 198 | 4.8 | 11.3 | 0.00 | 0.56 | 0.23 | 38 | 1009.8 |
| 20260508230034 | 12 | 202 | 3.2 | 9.7 | 0.00 | 0.56 | 0.23 | 43 | 1009.8 |
| 20260508224528 | 12 | 198 | 6.4 | 12.9 | 0.00 | 0.56 | 0.23 | 42 | 1009.7 |
| 20260508223016 | 12 | 257 | 8.0 | 14.5 | 0.00 | 0.56 | 0.23 | 42 | 1009.8 |
| 20260508221534 | 12 | 173 | 3.2 | 12.9 | 0.00 | 0.56 | 0.23 | 42 | 1009.9 |
| 20260508220017 | 13 | 169 | 4.8 | 11.3 | 0.00 | 0.56 | 0.23 | 42 | 1009.9 |
| 20260508214513 | 13 | 204 | 4.8 | 11.3 | 0.00 | 0.56 | 0.23 | 44 | 1009.9 |